Location: Newark
(15.4608°S, 41.1635°W)
Time: 22:16:22
(UTC+00:00)

Envisat - Pass Details

Date: 15 December 2019
Orbit: 764 x 766 km, 98.1° (Epoch: 28 January)

Event Time Altitude Azimuth Distance (km) Brightness Sun altitude
Rises 22:33:55 0° 203° (SSW) 3,244 7.1 -18.5°
Reaches altitude 10° 22:38:19 10° 239° (WSW) 2,310 6.7 -19.4°
Maximum altitude 22:39:27 11° 252° (WSW) 2,258 6.5 -19.6°
Drops below altitude 10° 22:40:35 10° 265° (W) 2,305 6.4 -19.9°
Sets 22:44:59 0° 301° (WNW) 3,222 6.6 -20.7°
